Radiation Dose at Monitoring Post of Fukushima Daini Nuclear Power Station
Date,Time,MP-1(microSv/h),MP-2(microSv/h),MP-3(microSv/h),MP-4(microSv/h),MP-5(microSv/h),MP-6(microSv/h),MP-7(microSv/h),Wind Direction,Wind Velocity(m/s),Rain
2023/08/02,00:00,0.149,0.136,0.218,0.206,0.211,0.120,0.077,west-southwest,1.5,No
2023/08/02,00:10,-,-,-,-,-,-,-,-,-,-
2023/08/02,00:20,0.148,0.137,0.217,0.207,0.211,0.119,0.076,northwest,2.5,No
2023/08/02,00:30,0.149,0.136,0.217,0.206,0.212,0.120,0.077,north-northwest,2.6,No
2023/08/02,00:40,0.148,0.136,0.219,0.209,0.210,0.119,0.076,north,1.3,No
2023/08/02,00:50,0.147,0.137,0.218,0.207,0.209,0.118,0.076,north-northeast,1.1,No
2023/08/02,01:00,0.150,0.137,0.219,0.205,0.212,0.119,0.076,-,CALM,No
2023/08/02,01:10,0.148,0.135,0.220,0.208,0.212,0.120,0.077,east-southeast,2.1,No
2023/08/02,01:20,0.148,0.137,0.218,0.208,0.210,0.120,0.076,south-southeast,3.0,No
2023/08/02,01:30,0.149,0.136,0.219,0.206,0.211,0.120,0.077,south-southeast,1.9,No
2023/08/02,01:40,0.149,0.136,0.221,0.208,0.213,0.121,0.077,south,1.2,No
2023/08/02,01:50,0.147,0.138,0.217,0.208,0.211,0.119,0.076,south-southwest,0.8,No
2023/08/02,02:00,0.148,0.137,0.220,0.206,0.209,0.119,0.076,west-southwest,1.9,No
2023/08/02,02:10,0.148,0.136,0.220,0.208,0.213,0.120,0.077,west-southwest,2.0,No
2023/08/02,02:20,0.149,0.137,0.218,0.209,0.212,0.119,0.076,west-southwest,2.1,No
2023/08/02,02:30,0.149,0.136,0.220,0.206,0.210,0.120,0.077,southwest,2.4,No
2023/08/02,02:40,0.149,0.136,0.220,0.208,0.212,0.120,0.077,southwest,1.5,No
2023/08/02,02:50,0.148,0.137,0.219,0.209,0.211,0.120,0.077,southwest,1.5,No
2023/08/02,03:00,0.149,0.136,0.221,0.206,0.211,0.120,0.077,southwest,1.3,No
2023/08/02,03:10,0.149,0.137,0.219,0.208,0.210,0.121,0.077,south,1.4,No
2023/08/02,03:20,0.148,0.137,0.220,0.209,0.213,0.120,0.076,south-southwest,2.0,No
2023/08/02,03:30,0.151,0.136,0.221,0.207,0.210,0.120,0.078,south-southwest,2.8,No
2023/08/02,03:40,0.148,0.138,0.218,0.210,0.211,0.121,0.078,south,2.7,No
2023/08/02,03:50,0.148,0.137,0.221,0.209,0.214,0.120,0.077,south,2.8,No
2023/08/02,04:00,0.150,0.138,0.221,0.207,0.211,0.121,0.078,south,1.8,No
2023/08/02,04:10,0.149,0.138,0.220,0.210,0.211,0.121,0.077,west-southwest,2.3,No
2023/08/02,04:20,0.149,0.136,0.221,0.208,0.212,0.120,0.078,west,2.0,No
2023/08/02,04:30,0.151,0.138,0.219,0.208,0.211,0.121,0.077,west,2.3,No
2023/08/02,04:40,0.148,0.137,0.222,0.209,0.211,0.120,0.077,west,2.0,No
2023/08/02,04:50,0.150,0.137,0.219,0.207,0.214,0.121,0.077,west-northwest,0.8,No
2023/08/02,05:00,0.149,0.137,0.220,0.209,0.212,0.122,0.078,northwest,0.8,No
2023/08/02,05:10,0.149,0.137,0.221,0.208,0.211,0.121,0.077,north-northwest,1.0,No
2023/08/02,05:20,0.150,0.138,0.220,0.207,0.213,0.120,0.077,north-northwest,1.7,No
2023/08/02,05:30,0.148,0.137,0.220,0.210,0.211,0.121,0.077,north-northwest,1.4,No
2023/08/02,05:40,0.147,0.136,0.220,0.208,0.210,0.120,0.077,north-northwest,0.7,No
2023/08/02,05:50,0.150,0.137,0.218,0.208,0.213,0.120,0.077,-,CALM,No
2023/08/02,06:00,0.149,0.138,0.220,0.209,0.212,0.121,0.076,west-southwest,0.7,No
2023/08/02,06:10,0.148,0.137,0.219,0.206,0.210,0.120,0.077,-,CALM,No
2023/08/02,06:20,0.149,0.136,0.218,0.207,0.209,0.120,0.076,west-southwest,0.8,No
2023/08/02,06:30,0.150,0.138,0.220,0.209,0.209,0.121,0.076,west,2.1,No
2023/08/02,06:40,0.148,0.137,0.218,0.208,0.210,0.121,0.077,west-northwest,1.2,No
2023/08/02,06:50,0.149,0.136,0.217,0.206,0.213,0.119,0.077,northwest,1.3,No
2023/08/02,07:00,0.150,0.137,0.221,0.205,0.212,0.120,0.077,north,1.1,No
2023/08/02,07:10,0.149,0.137,0.219,0.205,0.212,0.120,0.078,north,0.8,No
2023/08/02,07:20,0.149,0.138,0.218,0.207,0.211,0.119,0.077,-,CALM,No
2023/08/02,07:30,0.149,0.137,0.219,0.206,0.210,0.119,0.078,-,CALM,No
2023/08/02,07:40,0.147,0.137,0.217,0.205,0.209,0.120,0.078,-,CALM,No
2023/08/02,07:50,0.148,0.136,0.219,0.207,0.210,0.121,0.077,-,CALM,No
2023/08/02,08:00,0.149,0.137,0.220,0.207,0.210,0.119,0.078,-,CALM,No
2023/08/02,08:10,0.150,0.136,0.218,0.207,0.211,0.119,0.077,-,CALM,No
2023/08/02,08:20,0.150,0.137,0.219,0.208,0.211,0.121,0.078,east-northeast,0.7,No
2023/08/02,08:30,0.150,0.136,0.219,0.208,0.210,0.121,0.078,-,CALM,No
2023/08/02,08:40,0.149,0.137,0.220,0.207,0.211,0.121,0.077,east-northeast,0.7,No
2023/08/02,08:50,0.150,0.136,0.220,0.209,0.212,0.120,0.078,south-southeast,0.8,No
2023/08/02,09:00,0.149,0.136,0.220,0.208,0.213,0.121,0.078,east-southeast,1.5,No
2023/08/02,09:10,0.149,0.138,0.221,0.210,0.212,0.121,0.078,east-southeast,2.1,No
2023/08/02,09:20,0.149,0.137,0.220,0.209,0.213,0.121,0.078,east-southeast,2.7,No
2023/08/02,09:30,0.150,0.138,0.220,0.209,0.213,0.121,0.078,southeast,2.7,No
2023/08/02,09:40,0.150,0.137,0.221,0.210,0.213,0.121,0.077,southeast,3.1,No
2023/08/02,09:50,0.149,0.137,0.219,0.210,0.211,0.121,0.077,south-southeast,3.0,No
2023/08/02,10:00,0.149,0.137,0.221,0.210,0.213,0.121,0.077,south-southeast,3.2,No
2023/08/02,10:10,0.150,0.137,0.221,0.209,0.213,0.121,0.077,south-southeast,3.8,No
2023/08/02,10:20,0.148,0.138,0.221,0.208,0.213,0.121,0.077,south-southeast,4.2,No
2023/08/02,10:30,0.150,0.137,0.222,0.209,0.212,0.120,0.077,south-southeast,3.9,No
2023/08/02,10:40,0.150,0.139,0.221,0.209,0.212,0.121,0.076,south-southeast,4.4,No
2023/08/02,10:50,0.150,0.137,0.219,0.210,0.213,0.120,0.077,south,4.4,No
2023/08/02,11:00,0.150,0.138,0.221,0.209,0.211,0.120,0.077,south,4.5,No
2023/08/02,11:10,0.149,0.137,0.221,0.208,0.213,0.121,0.078,south,4.5,No
2023/08/02,11:20,0.150,0.138,0.221,0.209,0.213,0.120,0.077,south-southeast,5.0,No
2023/08/02,11:30,0.149,0.137,0.222,0.209,0.213,0.121,0.077,south-southeast,5.1,No
2023/08/02,11:40,0.150,0.138,0.220,0.210,0.212,0.120,0.077,south-southeast,5.6,No
2023/08/02,11:50,0.149,0.138,0.220,0.210,0.213,0.120,0.077,south-southeast,5.5,No
2023/08/02,12:00,0.150,0.138,0.221,0.209,0.212,0.121,0.077,south-southeast,5.0,No
2023/08/02,12:10,0.150,0.138,0.220,0.211,0.212,0.121,0.077,southeast,4.8,No
2023/08/02,12:20,0.150,0.138,0.221,0.209,0.213,0.122,0.076,south-southeast,5.1,No
2023/08/02,12:30,0.150,0.137,0.220,0.210,0.212,0.121,0.077,south-southeast,5.3,No
2023/08/02,12:40,0.149,0.138,0.221,0.211,0.212,0.120,0.076,south-southeast,5.0,No
2023/08/02,12:50,0.150,0.137,0.219,0.210,0.212,0.121,0.077,south-southeast,5.7,No
2023/08/02,13:00,0.150,0.137,0.221,0.210,0.212,0.120,0.076,south-southeast,5.7,No
2023/08/02,13:10,0.149,0.138,0.219,0.209,0.213,0.121,0.077,south-southeast,6.3,No
2023/08/02,13:20,0.150,0.138,0.220,0.209,0.212,0.120,0.076,south-southeast,6.3,No
2023/08/02,13:30,0.150,0.138,0.219,0.209,0.212,0.120,0.076,south-southeast,6.1,No
2023/08/02,13:40,0.149,0.137,0.221,0.209,0.211,0.120,0.076,south-southeast,6.9,No
2023/08/02,13:50,0.149,0.137,0.221,0.209,0.212,0.121,0.077,south-southeast,5.9,No
2023/08/02,14:00,0.150,0.138,0.221,0.209,0.212,0.120,0.077,south-southeast,6.4,No
2023/08/02,14:10,0.149,0.137,0.221,0.209,0.212,0.120,0.076,south-southeast,6.7,No
2023/08/02,14:20,0.150,0.138,0.221,0.209,0.212,0.120,0.076,south-southeast,7.8,No
2023/08/02,14:30,0.150,0.137,0.221,0.209,0.211,0.120,0.076,south-southeast,8.2,No
2023/08/02,14:40,0.149,0.137,0.221,0.209,0.211,0.121,0.077,south,8.6,No
2023/08/02,14:50,0.149,0.137,0.221,0.209,0.211,0.120,0.075,south-southeast,9.2,No
2023/08/02,15:00,0.149,0.137,0.220,0.210,0.211,0.121,0.076,south-southeast,8.6,No
2023/08/02,15:10,0.149,0.138,0.219,0.208,0.212,0.120,0.077,south,9.0,No
2023/08/02,15:20,0.149,0.137,0.220,0.209,0.211,0.120,0.076,south-southeast,9.2,No
2023/08/02,15:30,0.150,0.136,0.220,0.208,0.211,0.121,0.077,south-southeast,8.9,No
2023/08/02,15:40,0.149,0.137,0.220,0.208,0.212,0.121,0.077,south-southeast,9.3,No
2023/08/02,15:50,0.150,0.136,0.221,0.208,0.213,0.121,0.076,south-southeast,8.7,No
2023/08/02,16:00,0.149,0.136,0.221,0.208,0.212,0.120,0.076,south-southeast,8.9,No
2023/08/02,16:10,0.149,0.137,0.220,0.208,0.212,0.121,0.076,south,9.0,No
2023/08/02,16:20,0.148,0.137,0.220,0.208,0.211,0.121,0.076,south-southeast,9.2,No
2023/08/02,16:30,0.149,0.137,0.220,0.208,0.212,0.120,0.076,south,7.6,No
2023/08/02,16:40,0.150,0.137,0.221,0.208,0.213,0.121,0.077,south,8.5,No
2023/08/02,16:50,0.148,0.136,0.220,0.208,0.211,0.120,0.077,south,8.1,No
2023/08/02,17:00,0.149,0.136,0.220,0.208,0.211,0.120,0.075,south,6.5,No
2023/08/02,17:10,0.149,0.137,0.220,0.208,0.209,0.119,0.076,south,6.4,No
2023/08/02,17:20,0.148,0.136,0.220,0.207,0.209,0.119,0.076,south,6.0,No
2023/08/02,17:30,0.147,0.136,0.219,0.208,0.210,0.119,0.076,south,6.4,No
2023/08/02,17:40,0.148,0.136,0.220,0.208,0.210,0.119,0.077,south,6.4,No
2023/08/02,17:50,0.148,0.136,0.219,0.208,0.210,0.119,0.076,south,6.9,No
2023/08/02,18:00,0.148,0.138,0.223,0.211,0.210,0.121,0.076,south-southwest,7.9,No
2023/08/02,18:10,0.150,0.139,0.224,0.211,0.210,0.119,0.076,south,6.2,No
2023/08/02,18:20,0.150,0.137,0.221,0.210,0.209,0.120,0.076,south,6.2,No
2023/08/02,18:30,0.149,0.137,0.220,0.210,0.210,0.121,0.076,south,5.9,No
2023/08/02,18:40,0.148,0.137,0.219,0.208,0.214,0.120,0.076,south,5.2,No
2023/08/02,18:50,0.148,0.137,0.219,0.207,0.214,0.120,0.077,south,4.1,No
2023/08/02,19:00,0.149,0.139,0.220,0.210,0.211,0.120,0.076,south,3.6,No
2023/08/02,19:10,0.151,0.137,0.221,0.212,0.212,0.120,0.075,south-southwest,2.4,No
2023/08/02,19:20,0.150,0.137,0.223,0.209,0.211,0.120,0.076,south-southwest,3.0,No
2023/08/02,19:30,0.150,0.136,0.221,0.209,0.210,0.120,0.076,south-southwest,2.9,No
2023/08/02,19:40,0.147,0.138,0.219,0.208,0.213,0.120,0.076,south-southwest,2.6,No
2023/08/02,19:50,0.149,0.138,0.222,0.210,0.213,0.120,0.076,south-southwest,1.8,No
2023/08/02,20:00,0.151,0.137,0.223,0.212,0.213,0.120,0.076,south-southwest,2.5,No
2023/08/02,20:10,0.150,0.137,0.222,0.210,0.212,0.121,0.077,south-southwest,2.2,No
2023/08/02,20:20,0.149,0.138,0.220,0.209,0.211,0.121,0.077,south,2.2,No
2023/08/02,20:30,0.148,0.139,0.223,0.209,0.214,0.121,0.076,south,2.7,No
2023/08/02,20:40,0.152,0.137,0.224,0.212,0.214,0.120,0.076,south,2.8,No
2023/08/02,20:50,0.151,0.137,0.222,0.211,0.211,0.121,0.077,south-southwest,3.1,No
2023/08/02,21:00,0.149,0.139,0.221,0.209,0.210,0.121,0.077,south-southwest,2.8,No
2023/08/02,21:10,0.149,0.137,0.224,0.209,0.212,0.121,0.078,south,3.2,No
2023/08/02,21:20,0.151,0.137,0.224,0.214,0.214,0.120,0.077,south,3.3,No
2023/08/02,21:30,0.152,0.138,0.221,0.211,0.213,0.121,0.077,south,3.6,No
2023/08/02,21:40,0.150,0.139,0.221,0.210,0.211,0.122,0.077,south,4.6,No
2023/08/02,21:50,0.149,0.137,0.224,0.209,0.211,0.122,0.078,south,3.8,No
2023/08/02,22:00,0.152,0.137,0.223,0.212,0.215,0.121,0.077,south-southwest,4.2,No
2023/08/02,22:10,0.151,0.139,0.220,0.211,0.213,0.121,0.077,south-southwest,3.4,No
2023/08/02,22:20,0.149,0.138,0.221,0.209,0.212,0.122,0.078,south,3.4,No
2023/08/02,22:30,0.150,0.137,0.223,0.212,0.210,0.121,0.077,south-southwest,3.6,No
2023/08/02,22:40,0.151,0.139,0.222,0.213,0.214,0.121,0.077,south-southwest,2.9,No
2023/08/02,22:50,0.150,0.139,0.223,0.209,0.214,0.122,0.078,south-southwest,2.4,No
2023/08/02,23:00,0.149,0.138,0.223,0.211,0.213,0.122,0.078,south,2.8,No
2023/08/02,23:10,0.151,0.139,0.223,0.212,0.211,0.121,0.077,south,4.0,No
2023/08/02,23:20,0.152,0.139,0.221,0.211,0.214,0.120,0.078,south-southwest,2.9,No
2023/08/02,23:30,0.150,0.138,0.224,0.210,0.214,0.122,0.077,south-southwest,2.9,No
2023/08/02,23:40,0.150,0.137,0.223,0.211,0.212,0.122,0.078,south-southwest,3.0,No
2023/08/02,23:50,0.151,0.139,0.220,0.212,0.212,0.121,0.078,southwest,2.8,No
